AirNav   Air Wisconsin Up To $57,000 Bonus
 
 1662 users online  

KPYG Pageland Airport
Pageland, South Carolina, USA

GOING TO PAGELAND?


FAA INFORMATION EFFECTIVE 25 MARCH 2021

Location

FAA Identifier: PYG
Lat/Long: 34-44-31.7000N 080-20-42.7000W
34-44.528333N 080-20.711667W
34.7421389,-80.3451944
(estimated)
Elevation: 574.9 ft. / 175.2 m (surveyed)
Variation: 08W (2020)
From city: 3 miles SE of PAGELAND, SC
Time zone: UTC -4 (UTC -5 during Standard Time)
Zip code: 29728

Airport Operations

Airport use: Open to the public
Control tower: no
ARTCC: ATLANTA CENTER
FSS: ANDERSON FLIGHT SERVICE STATION
NOTAMs facility: AND (NOTAM-D service available)
Attendance: UNATNDD
Wind indicator: lighted
Segmented circle: yes
Lights: ACTVT PAPI RWY 6 & 24 - CTAF.
Beacon: white-green (lighted land airport)
Operates sunset to sunrise.

Airport Communications

CTAF: 122.9
CHARLOTTE APPROACH: 120.05
CHARLOTTE DEPARTURE: 120.05
WX AWOS-3 at CQW (19 nm E): 124.825 (843-537-3301)

Nearby radio navigation aids

VOR radial/distance  VOR name  Freq  Var
CTFr331/6.5CHESTERFIELD VOR/DME108.2003W

 
NDB name  Hdg/Dist  Freq  Var  ID
HARTSVILLE338/23.034107WHVS .... ...- ...
LANCASTER094/25.440007WLKR .-.. -.- .-.
DARLINGTON314/28.924506WUDG ..- -.. --.
BENNETTSVILLE292/31.123008WBES -... . ...

Airport Services

Fuel available: 100LL
SELF SVC FUEL AVBL 24 HRS.
Parking: tiedowns
Airframe service: NONE
Powerplant service: NONE
Bottled oxygen: NONE
Bulk oxygen: NONE

Runway Information

Runway 6/24

Dimensions: 3396 x 60 ft. / 1035 x 18 m
Surface: asphalt, in good condition
Weight bearing capacity: 
Single wheel: 12.5
Runway edge lights: medium intensity
RUNWAY 6  RUNWAY 24
Latitude: 34-44.349642N34-44.706580N
Longitude: 080-20.972250W080-20.449893W
Elevation: 549.9 ft.574.9 ft.
Traffic pattern: leftleft
Runway heading: 058 magnetic, 050 true238 magnetic, 230 true
Markings: nonprecision, in good conditionnonprecision, in good condition
Visual slope indicator: 2-light PAPI on left (3.00 degrees glide path)2-light PAPI on left (3.00 degrees glide path)
Runway end identifier lights: yesyes
Touchdown point: yes, no lightsyes, no lights

Airport Ownership and Management from official FAA records

Ownership: Publicly-owned
Owner: TOWN OF PAGELAND
126 N PEARL ST
PAGELAND, SC 29728-1951
Phone 843-672-7292
Manager: CECIL KIMREY
126 N PEARL ST, 126 N PEARL ST
PAGELAND, SC 29728-1951
Phone 843-672-7292

Airport Operational Statistics

Aircraft based on the field: 21
Single engine airplanes: 19
Multi engine airplanes: 2
    
Aircraft operations: avg 44/week *
57% local general aviation
43% transient general aviation
* for 12-month period ending 29 September 2020

Additional Remarks

A58-24 31 FT PWR POLE 182 FT FM RWY END, 188 FT R OF CNTRLN.
FOR CD CTC CHARLOTTE APCH AT 704-359-0241.

Instrument Procedures

NOTE: All procedures below are presented as PDF files. If you need a reader for these files, you should download the free Adobe Reader.

NOT FOR NAVIGATION. Please procure official charts for flight.
FAA instrument procedures published for use from 25 March 2021 at 0901Z to 22 April 2021 at 0900z.

 
IAPs - Instrument Approach Procedures
RNAV (GPS) RWY 06   download (218KB)
RNAV (GPS) RWY 24   download (213KB)
NOTE: Special Take-Off Minimums/Departure Procedures apply   download (141KB)

Other nearby airports with instrument procedures:

KCQW - Cheraw Municipal Airport/Lynch Bellinger Field (19 nm E)
N52 - JAARS-Townsend Airport (21 nm W)
KAFP - Anson County Airport - Jeff Cloud Field (21 nm NE)
KEQY - Charlotte-MonroeExecutive Airport (21 nm NW)
KHVS - Hartsville Regional Airport (23 nm SE)
 
Loc | Ops | Rwys | IFR | FBO | Links
Com | Nav | Svcs | Stats | Notes
Area around KPYG (Pageland Airport)
 
Road maps at: MapQuest Bing Google
 
Aerial photo
WARNING: Photo may not be current or correct
Aerial photo of KPYG (Pageland Airport)
Do you have a better or more recent aerial photo of Pageland Airport that you would like to share? If so, please send us your photo.

 
Sectional chart

 
Airport distance calculator
Flying to Pageland Airport? Find the distance to fly.

From to KPYG

Sunrise and sunset
Times for 14-Apr-2021
 Local
(UTC-4)
 Zulu
(UTC)
Morning civil twilight06:2610:26
Sunrise06:5210:52
Sunset19:5123:51
Evening civil twilight20:1700:17

Current date and time
Zulu (UTC)  14-Apr-2021 18:39:20
Local (UTC-4)  14-Apr-2021 14:39:20
 
METAR
KCQW 
19nm E 
141815Z AUTO 21011KT 10SM CLR 29/11 A2997 RMK AO2
KEQY 
21nm NW 
141753Z AUTO 21005KT 10SM CLR 27/13 A2998 RMK AO2 SLP155 T02720128 10278 20122 58026
KAFP 
21nm NE 
141815Z AUTO 21008G15KT 170V230 10SM BKN120 28/12 A2998 RMK AO2 T02820115
KHVS 
23nm SE 
141815Z AUTO 20008G17KT 170V230 10SM CLR 29/11 A2999 RMK AO2
KLKR 
25nm W 
141815Z AUTO VRB04G12KT 10SM 28/13 A2999 RMK AO2 TSNO
KUDG 
29nm SE 
141756Z AUTO 19010G16KT 10SM CLR 29/12 A3000 RMK AO2 SLP159 T02890122 10294 20139 58028
KCDN 
30nm S 
141815Z AUTO VRB04G13KT 10SM CLR 28/14 A2999 RMK AO2
KRCZ 
30nm E 
141815Z AUTO 19009G19KT 10SM CLR 28/11 A2999 RMK AO2 T02820105
KBBP 
31nm E 
141815Z AUTO 17011G15KT 154V224 10SM CLR 28/12 A2998 RMK AO2
KUZA 
38nm NW 
141754Z AUTO 22011KT 10SM CLR 28/14 A3000 RMK AO2 SLP151 T02780139 10278 20122 58022
TAF
KCLT 
41nm NW 
141726Z 1418/1524 21009KT P6SM SCT150 FM142000 23009G17KT P6SM SCT060 BKN100 TEMPO 1500/1504 6SM -SHRA BR BKN035 OVC060 FM150400 25008KT P6SM VCSH OVC050 FM151100 31006KT P6SM BKN050 FM151500 32008G16KT P6SM SCT050 BKN150
KFLO 
45nm SE 
141720Z 1418/1518 21012KT P6SM FEW250 FM150000 19012G19KT P6SM VCSH BKN200 FM150400 22010KT P6SM VCSH BKN100 WS020/23045KT FM150600 23009KT P6SM BKN080
KSSC 
47nm S 
141500Z 1415/1521 20012KT 9999 SKC QNH3006INS BECMG 1416/1417 21012G18KT 9999 FEW100 SCT250 QNH2991INS BECMG 1423/1424 21009KT 9999 SCT060 BKN120 QNH2990INS BECMG 1503/1504 24011KT 4800 -SHRA BKN060 BKN100 QNH2982INS BECMG 1510/1511 24009KT 9999 VCSH BKN020 OVC080 QNH2981INS BECMG 1515/1516 27009KT 8000 -SHRA BKN060 OVC100 QNH2971INS TX29/1420Z TN16/1511Z
NOTAMs
Click for the latest NOTAMs
NOTAMs are issued by the DoD/FAA and will open in a separate window not controlled by AirNav.

 

 
 

FBO, Fuel Providers, and Aircraft Ground Support

  
 Business Name 
 
 Contact 
 
 Services / Description 
 
Fuel Prices
 
Comments
  
Town of Pageland (self-serve fuel) 843-672-7292
no information available

If you are affiliated with Town of Pageland (self-serve fuel) and would like to show here your services, contact info, web link, logo, and more, click here
100LL
SS $3.75 
 Updated 16-Mar-2021
 
   write
SS=Self service
Update Fuel Prices
 

Would you like to see your business listed on this page?

 If your business provides an interesting product or service to pilots, flight crews, aircraft, or users of the Pageland Airport, you should consider listing it here.  To start the listing process, click on the button below
 
Add a business
 

Other Pages about Pageland Airport

Update a link
 
Copyright © AirNav, LLC. All rights reserved. Privacy Policy  Contact